Hourly Data Report for October 22, 2013

All times are specified in Local Standard Time (LST). Add 1 hour to adjust for Daylight Saving Time where and when it is observed.

ARVIAT A
NUNAVUT

61°05'38.000" N
94°04'18.000" W
10.40 m
2300427
71174
YEK

Download Data

Hourly Data (October 2013)
Hourly Data Report for October 22, 2013
Temp Definition
°C
Dew Point Temp Definition
°C
Rel Hum Definition
%
Wind Dir Definition
10's deg

Wind Spd Definition
km/h
Visibility Definition
km
Stn Press Definition
kPa
Hmdx Definition


Wind Chill Definition


Weather Definition


TIME
00:00 Legend Double Dagger -4.7 -5.1 97 35 35 6.4 101.44   -13 LegendNANA
01:00 Legend Double Dagger -4.8 -5.4 96 35 35 14.5 101.41   -13 LegendNANA
02:00 Legend Double Dagger -5.0 -5.4 97 35 32 16.1 101.41   -13 LegendNANA
03:00 Legend Double Dagger -5.1 -5.6 96 35 35 16.1 101.40   -14 LegendNANA
04:00 Legend Double Dagger -4.7 -5.2 96 34 37 16.1 101.38   -13 LegendNANA
05:00 Legend Double Dagger -4.5 -4.9 97 34 37 12.9 101.37   -13 LegendNANA
06:00 Legend Double Dagger -4.6 -5.1 96 34 35 12.9 101.36   -13 LegendNANA
07:00 Legend Double Dagger -4.5 -5.0 96 34 35 16.1 101.35   -13 LegendNANA
08:00 Legend Double Dagger -4.4 -5.0 96 35 33 16.1 101.34   -13 LegendNANA
09:00 Legend Double Dagger -4.4 -4.9 96 35 35 16.1 101.34   -13 LegendNANA
10:00 Legend Double Dagger -4.2 -4.9 95 35 35 16.1 101.31   -13 LegendNANA
11:00 Legend Double Dagger -4.2 -4.9 95 35 33 16.1 101.31   -12 LegendNANA
12:00 Legend Double Dagger -4.2 -4.7 96 34 33 16.1 101.30   -12 LegendNANA
13:00 Legend Double Dagger -4.3 -4.7 97 34 35 12.9 101.29   -13 LegendNANA
14:00 Legend Double Dagger -4.4 -5.0 96 34 37 16.1 101.29   -13 LegendNANA
15:00 Legend Double Dagger -4.4 -4.7 98 34 35 11.3 101.30   -13 LegendNANA
16:00 Legend Double Dagger -4.4 -4.8 97 34 30 16.1 101.30   -12 LegendNANA
17:00 Legend Double Dagger -4.4 -4.9 97 34 30 16.1 101.29   -12 LegendNANA
18:00 Legend Double Dagger -4.7 -5.2 97 34 32 16.1 101.31   -13 LegendNANA
19:00 Legend Double Dagger -4.5 -5.0 96 33 28 16.1 101.33   -12 LegendNANA
20:00 Legend Double Dagger -4.5 -5.0 96 33 30 16.1 101.31   -12 LegendNANA
21:00 Legend Double Dagger -4.9 -5.3 97 33 30 16.1 101.27   -13 LegendNANA
22:00 Legend Double Dagger -4.8 -5.2 97 33 30 16.1 101.26   -13 LegendNANA
23:00 Legend Double Dagger -5.4 -5.7 98 32 32 12.9 101.25   -14 LegendNANA

Notes on Data Quality.

Legend

  • E = Estimated
  • M = Missing
  • NA = Not Available
  • ‡ = Partner data that is not subject to review by the National Climate Archives
Date modified: